Harlan, KY

5:39 AM EST on December 16, 2019 (GMT -0500)
Harlan

Weather History for KI35 - November, 2019

Change the Weather History Date:

Tuesday, November 12, 2019

  Actual Average (KLOZ) Record (KLOZ)
Temperature  
Mean Temperature 30 °F -  
Max Temperature 41 °F 56 °F 76 °F (1978)
Min Temperature 19 °F 34 °F 17 °F (2019)
Degree Days  
Heating Degree Days 35    
Moisture  
Dew Point 21 °F    
Average Humidity 81    
Maximum Humidity 95    
Minimum Humidity 73    
Precipitation  
Precipitation 0.00 in - - ()
Sea Level Pressure  
Sea Level Pressure 30.23 in    
Wind  
Wind Speed 6 mph ()    
Max Wind Speed 15 mph    
Max Gust Speed 22 mph    
Visibility 7.0 miles    
Events      
Averages and records for this station are not official NWS values.
T = Trace of Precipitation, MM = Missing Value Source: Averaged Metar Reports

Daily Weather History Graph

Daily Weather History Graph

Search for Another Location

Airport or City:

Astronomy

Nov. 12, 2019 Rise Set
Actual Time 7:08 AM EST 5:26 PM EST
Civil Twilight 6:40 AM EST 5:53 PM EST
Nautical Twilight 6:09 AM EST 6:24 PM EST
Astronomical Twilight 5:39 AM EST 6:55 PM EST
Moon 5:52 PM EST (11/12) 7:00 AM EST (11/12)
Length of Visible Light 11h 12m
Length of Day
10h 18m
Full, 100% of the Moon is Illuminated
Nov 12
Full
Nov 19
Last Quarter
Nov 26
New
Dec 4
First Quarter
Dec 12
Full

Hourly Weather History & Observations

Time (EST) Temp. Windchill Dew Point Humidity Pressure Visibility Wind Dir Wind Speed Gust Speed Precip Events Conditions
12:15 AM 41.2 °F 37.3 °F 39.2 °F 93% 30.04 in 7.0 mi WSW 5.8 mph - N/A   Overcast
12:35 AM 41.0 °F 37.1 °F 38.8 °F 92% 30.05 in 10.0 mi West 5.8 mph - N/A   Overcast
12:55 AM 39.4 °F 31.1 °F 36.0 °F 88% 30.06 in 10.0 mi NNW 15.0 mph - N/A   Overcast
1:15 AM 37.6 °F 33.1 °F 34.0 °F 87% 30.06 in 10.0 mi WNW 5.8 mph - N/A   Overcast
1:35 AM 35.8 °F 28.3 °F 32.4 °F 87% 30.08 in 5.0 mi WNW 10.4 mph 18.4 mph N/A   Overcast
1:55 AM 33.8 °F 24.8 °F 31.5 °F 91% 30.09 in 3.0 mi WNW 12.7 mph - N/A   Overcast
2:15 AM 32.7 °F 25.7 °F 30.2 °F 90% 30.09 in 5.0 mi NW 8.1 mph 17.3 mph N/A   Overcast
2:35 AM 32.4 °F 26.0 °F 29.8 °F 90% 30.09 in 4.0 mi NW 6.9 mph - N/A   Overcast
2:55 AM 32.4 °F 29.1 °F 30.0 °F 91% 30.09 in 5.0 mi WNW 3.5 mph - N/A   Overcast
3:35 AM 32.0 °F - 30.7 °F 95% 30.09 in 1.8 mi Calm Calm - N/A   Overcast
3:55 AM 31.6 °F 27.0 °F 29.1 °F 90% 30.10 in 1.2 mi NW 4.6 mph - N/A   Overcast
4:15 AM 30.9 °F 27.5 °F 28.6 °F 91% 30.11 in 1.0 mi WNW 3.5 mph 16.1 mph N/A   Overcast
4:35 AM 30.2 °F 24.3 °F 27.7 °F 90% 30.11 in 1.5 mi NNW 5.8 mph - N/A   Overcast
4:55 AM 30.6 °F 25.8 °F 27.7 °F 89% 30.12 in 1.8 mi West 4.6 mph - N/A   Overcast
5:15 AM 30.2 °F 21.9 °F 26.2 °F 85% 30.12 in 2.5 mi NNW 9.2 mph 16.1 mph N/A   Overcast
5:35 AM 29.8 °F - 25.7 °F 85% 30.14 in 5.0 mi Calm Calm - N/A   Overcast
5:55 AM 29.3 °F 20.8 °F 25.5 °F 86% 30.16 in 10.0 mi North 9.2 mph - N/A   Overcast
6:15 AM 29.1 °F 21.3 °F 25.0 °F 85% 30.17 in 10.0 mi NW 8.1 mph 18.4 mph N/A   Overcast
6:35 AM 28.4 °F 23.3 °F 23.9 °F 83% 30.17 in 10.0 mi NNW 4.6 mph 16.1 mph N/A   Overcast
6:55 AM 28.4 °F 23.3 °F 23.4 °F 81% 30.18 in 10.0 mi West 4.6 mph - N/A   Overcast
7:15 AM 28.4 °F - 24.6 °F 86% 30.19 in 10.0 mi Calm Calm - N/A   Overcast
7:35 AM 28.0 °F 20.8 °F 24.8 °F 88% 30.20 in 10.0 mi WNW 6.9 mph - N/A   Overcast
7:55 AM 27.7 °F 16.6 °F 25.0 °F 90% 30.21 in 7.0 mi WNW 13.8 mph 19.6 mph N/A   Overcast
8:15 AM 27.0 °F 18.7 °F 24.4 °F 90% 30.22 in 10.0 mi NW 8.1 mph - N/A   Overcast
8:35 AM 26.6 °F 21.2 °F 23.0 °F 86% 30.23 in 10.0 mi NW 4.6 mph - N/A   Overcast
8:55 AM 26.6 °F 17.5 °F 22.8 °F 86% 30.23 in 10.0 mi NW 9.2 mph 16.1 mph N/A   Overcast
9:15 AM 26.4 °F 17.3 °F 22.6 °F 86% 30.23 in 10.0 mi NW 9.2 mph - N/A   Overcast
9:35 AM 26.1 °F 16.8 °F 20.5 °F 79% 30.24 in 10.0 mi North 9.2 mph 21.9 mph N/A   Overcast
9:55 AM 25.9 °F 17.4 °F 20.1 °F 79% 30.25 in 10.0 mi NW 8.1 mph - N/A   Overcast
10:15 AM 25.7 °F 19.0 °F 20.3 °F 80% 30.24 in 10.0 mi NNW 5.8 mph 19.6 mph N/A   Overcast
10:35 AM 25.7 °F 16.4 °F 19.9 °F 79% 30.25 in 7.0 mi North 9.2 mph - N/A   Overcast
10:55 AM 25.7 °F 16.4 °F 20.3 °F 80% 30.25 in 7.0 mi NNW 9.2 mph - N/A   Overcast
11:15 AM 26.1 °F 16.8 °F 20.7 °F 80% 30.25 in 10.0 mi North 9.2 mph - N/A   Overcast
11:35 AM 26.2 °F 20.7 °F 19.6 °F 76% 30.25 in 10.0 mi NW 4.6 mph - N/A   Overcast
11:55 AM 26.1 °F 17.6 °F 19.0 °F 75% 30.26 in 10.0 mi NW 8.1 mph - N/A   Overcast
12:35 PM 25.7 °F 15.7 °F 20.7 °F 81% 30.26 in 5.0 mi NW 10.4 mph - N/A   Overcast
12:55 PM 25.2 °F 15.7 °F 18.5 °F 76% 30.26 in 7.0 mi WNW 9.2 mph - N/A   Overcast
1:15 PM 25.0 °F 12.6 °F 18.3 °F 76% 30.25 in 5.0 mi NNW 15.0 mph 18.4 mph N/A   Overcast
1:55 PM 24.6 °F 15.1 °F 18.7 °F 78% 30.26 in 3.0 mi WNW 9.2 mph - N/A   Overcast
2:15 PM 23.9 °F 16.8 °F 17.2 °F 76% 30.26 in 5.0 mi NW 5.8 mph - N/A   Overcast
2:35 PM 23.9 °F - 18.0 °F 78% 30.27 in 1.8 mi Calm Calm - N/A   Overcast
2:55 PM 23.9 °F 18.0 °F 17.4 °F 76% 30.27 in 3.0 mi NNW 4.6 mph 18.4 mph N/A   Overcast
3:15 PM 23.5 °F 14.5 °F 16.7 °F 75% 30.27 in 3.0 mi NNW 8.1 mph - N/A   Overcast
3:35 PM 23.2 °F 16.0 °F 16.3 °F 75% 30.28 in 4.0 mi NW 5.8 mph - N/A   Overcast
3:55 PM 23.4 °F 15.2 °F 16.2 °F 74% 30.28 in 10.0 mi North 6.9 mph - N/A   Overcast
4:15 PM 22.5 °F 17.8 °F 15.4 °F 74% 30.29 in 2.5 mi North 3.5 mph - N/A   Overcast
4:35 PM 22.5 °F 16.3 °F 15.3 °F 74% 30.30 in 4.0 mi NW 4.6 mph - N/A   Overcast
4:55 PM 22.3 °F 13.9 °F 14.7 °F 73% 30.30 in 3.0 mi North 6.9 mph - N/A   Overcast
5:15 PM 22.1 °F - 15.8 °F 77% 30.30 in 7.0 mi Calm Calm - N/A   Overcast
5:35 PM 22.3 °F - 16.0 °F 77% 30.30 in 5.0 mi Calm Calm - N/A   Overcast
5:55 PM 21.9 °F 15.7 °F 15.6 °F 77% 30.31 in 4.0 mi North 4.6 mph - N/A   Overcast
6:15 PM 21.9 °F 17.2 °F 15.8 °F 77% 30.32 in 7.0 mi NNE 3.5 mph - N/A   Overcast
6:35 PM 21.6 °F - 14.5 °F 74% 30.33 in 10.0 mi Calm Calm - N/A   Overcast
7:35 PM 20.7 °F - 13.3 °F 73% 30.35 in 10.0 mi Calm Calm - N/A   Mostly Cloudy
7:55 PM 20.3 °F 15.4 °F 13.5 °F 75% 30.35 in 7.0 mi North 3.5 mph - N/A   Overcast
8:15 PM 20.5 °F - 14.4 °F 77% 30.35 in 4.0 mi Calm Calm - N/A   Overcast
8:35 PM 20.3 °F 13.8 °F 14.4 °F 78% 30.35 in 4.0 mi NW 4.6 mph - N/A   Overcast
8:55 PM 20.3 °F 13.8 °F 13.6 °F 75% 30.36 in 10.0 mi NNE 4.6 mph - N/A   Overcast
9:15 PM 20.1 °F 15.2 °F 13.5 °F 75% 30.36 in 10.0 mi North 3.5 mph - N/A   Overcast
9:35 PM 19.9 °F 14.9 °F 13.1 °F 75% 30.37 in 10.0 mi North 3.5 mph - N/A   Overcast
9:55 PM 19.6 °F 11.7 °F 12.6 °F 74% 30.38 in 10.0 mi NE 5.8 mph - N/A   Overcast
10:15 PM 19.2 °F - 12.4 °F 75% 30.37 in 10.0 mi Calm Calm - N/A   Overcast
10:35 PM 19.4 °F 9.5 °F 12.7 °F 75% 30.36 in 10.0 mi North 8.1 mph - N/A   Overcast
10:55 PM 19.2 °F 11.3 °F 12.7 °F 76% 30.35 in 10.0 mi ENE 5.8 mph - N/A   Overcast
11:15 PM 19.0 °F 11.1 °F 11.7 °F 73% 30.35 in 10.0 mi NNE 5.8 mph - N/A   Overcast
11:35 PM 19.0 °F 12.3 °F 11.7 °F 73% 30.35 in 10.0 mi North 4.6 mph - N/A   Overcast
11:55 PM 19.2 °F - 12.9 °F 76% 30.35 in 7.0 mi Calm Calm - N/A   Overcast